GW6639 Weather Reports


Display with metric or nautical units.
time (UTC)temp
F
wind
direction
speed
MPH
gust
MPH
rain 1hr
in
rain 24hr
in
rain mn
in
humidity
%
barometer
mb
20260906210524 82 9 4.0 10.0 0.00 0.00 0.00 36 1023.3
20260906210019 82 189 4.0 8.0 0.00 0.00 0.00 36 1023.3
20260906205522 81 281 2.0 9.0 0.00 0.00 0.00 36 1023.3
20260906205015 82 137 4.0 9.0 0.00 0.00 0.00 36 1023.3
20260906204520 82 153 4.0 10.0 0.00 0.00 0.00 36 1023.3
20260906204014 82 116 4.0 9.0 0.00 0.00 0.00 35 1023.3
20260906203508 83 197 4.0 11.0 0.00 0.00 0.00 35 1023.8
20260906203038 84 172 4.0 11.0 0.00 0.00 0.00 35 1023.8
20260906202521 84 317 2.0 4.0 0.00 0.00 0.00 35 1023.8
20260906202013 80 316 3.0 9.0 0.00 0.00 0.00 36 1023.8
20260906201519 83 164 6.0 12.0 0.00 0.00 0.00 36 1023.8
20260906201043 84 230 4.0 9.0 0.00 0.01 0.00 35 1023.8
20260906200507 84 125 2.0 6.0 0.00 0.01 0.00 34 1023.8
20260906200025 84 233 3.0 6.0 0.00 0.01 0.00 34 1023.8
20260906195519 84 268 4.0 8.0 0.00 0.01 0.00 34 1023.8
20260906195011 83 281 3.0 4.0 0.00 0.01 0.00 36 1023.8
20260906194515 83 243 3.0 9.0 0.00 0.01 0.00 35 1023.8
20260906194010 84 170 4.0 8.0 0.00 0.01 0.00 35 1023.8
20260906193527 82 235 3.0 8.0 0.00 0.01 0.00 37 1023.8
20260906193021 82 156 6.0 15.0 0.00 0.01 0.00 36 1023.8
20260906192513 84 245 5.0 11.0 0.00 0.01 0.00 34 1024.2
20260906192020 83 207 3.0 10.0 0.00 0.01 0.00 35 1024.2
20260906191513 84 336 3.0 7.0 0.00 0.01 0.00 34 1024.2
20260906191021 84 208 2.0 5.0 0.00 0.01 0.00 36 1024.2
20260906190522 83 155 4.0 10.0 0.00 0.01 0.00 37 1024.2
20260906190019 83 124 3.0 7.0 0.00 0.01 0.00 37 1024.2
20260906185511 83 198 4.0 8.0 0.00 0.01 0.00 37 1024.2
20260906185015 85 107 4.0 9.0 0.00 0.01 0.00 36 1024.2
20260906184510 82 73 1.0 3.0 0.00 0.01 0.00 38 1024.2
20260906184027 83 199 4.0 9.0 0.00 0.01 0.00 37 1024.7
20260906183521 83 234 3.0 7.0 0.00 0.01 0.00 37 1024.7
20260906183014 82 116 3.0 7.0 0.00 0.01 0.00 39 1024.7
20260906182509 82 205 4.0 9.0 0.00 0.01 0.00 38 1024.7
20260906182028 82 242 3.0 6.0 0.00 0.01 0.00 36 1024.7
20260906181507 83 274 2.0 4.0 0.00 0.01 0.00 37 1024.7
20260906181037 82 312 2.0 4.0 0.00 0.01 0.00 38 1025.1
20260906180507 83 92 3.0 6.0 0.00 0.01 0.00 38 1025.1
20260906180022 82 269 2.0 4.0 0.00 0.01 0.00 39 1025.1
20260906175519 82 308 3.0 8.0 0.00 0.01 0.00 39 1025.1
20260906175011 81 257 3.0 5.0 0.00 0.01 0.00 39 1025.1
20260906174527 83 128 3.0 7.0 0.00 0.01 0.00 39 1025.1
20260906174009 82 259 2.0 5.0 0.00 0.01 0.00 40 1025.1
20260906173540 84 316 2.0 3.0 0.00 0.01 0.00 39 1025.1
20260906173048 82 326 2.0 4.0 0.00 0.01 0.00 41 1025.5
20260906172525 82 296 2.0 4.0 0.00 0.01 0.00 41 1025.5
20260906172009 82 79 2.0 3.0 0.00 0.01 0.00 42 1025.5
20260906171526 81 324 2.0 4.0 0.00 0.01 0.00 43 1025.5
20260906171009 80 3 2.0 8.0 0.00 0.01 0.00 44 1025.5
20260906170513 79 281 2.0 6.0 0.00 0.01 0.00 44 1025.5
20260906170007 79 292 2.0 4.0 0.00 0.01 0.00 45 1025.5
20260906165538 78 286 2.0 3.0 0.00 0.01 0.00 47 1025.5
20260906165020 77 199 2.0 7.0 0.00 0.01 0.00 48 1025.5
20260906164512 77 272 2.0 4.0 0.00 0.01 0.00 49 1025.5
20260906164019 75 283 2.0 4.0 0.00 0.01 0.00 50 1025.5
20260906163523 75 264 2.0 6.0 0.00 0.01 0.00 51 1026.0
20260906163028 75 241 3.0 8.0 0.00 0.01 0.00 51 1026.0
20260906162511 75 280 2.0 4.0 0.00 0.01 0.00 52 1026.0
20260906162040 74 116 3.0 5.0 0.00 0.01 0.00 53 1026.0
20260906161510 74 262 2.0 4.0 0.00 0.01 0.00 54 1026.0
20260906161014 73 266 3.0 8.0 0.00 0.01 0.00 55 1026.0
20260906160508 74 250 3.0 7.0 0.00 0.01 0.00 55 1026.0
20260906160023 74 254 2.0 4.0 0.00 0.01 0.00 55 1026.0
20260906155520 72 245 3.0 8.0 0.00 0.01 0.00 57 1026.0
20260906155012 72 250 4.0 9.0 0.00 0.01 0.00 58 1026.0
20260906154532 71 208 4.0 10.0 0.00 0.01 0.00 59 1025.5
20260906154024 72 272 3.0 8.0 0.00 0.01 0.00 58 1025.5
20260906153518 71 119 3.0 5.0 0.00 0.01 0.00 59 1025.5
20260906153012 70 225 3.0 8.0 0.00 0.01 0.00 60 1025.5
20260906152516 70 227 5.0 9.0 0.00 0.01 0.00 60 1025.5
20260906152010 70 228 4.0 9.0 0.00 0.01 0.00 61 1025.5
20260906151514 69 225 3.0 6.0 0.00 0.01 0.00 62 1025.5
20260906151034 70 248 3.0 7.0 0.00 0.01 0.00 61 1025.5
20260906150033 69 209 4.0 10.0 0.00 0.01 0.00 62 1025.5
20260906145009 67 221 4.0 8.0 0.00 0.01 0.00 66 1025.5
20260906144515 67 246 4.0 12.0 0.00 0.01 0.00 67 1025.5
20260906144009 66 204 5.0 12.0 0.00 0.01 0.00 69 1025.5
20260906143513 65 199 6.0 13.0 0.00 0.01 0.00 69 1025.5
20260906143019 65 182 7.0 12.0 0.00 0.01 0.00 69 1025.5
20260906142525 65 200 6.0 11.0 0.00 0.01 0.00 69 1025.5
20260906142007 64 195 6.0 9.0 0.00 0.01 0.00 68 1025.5
20260906141526 64 188 6.0 11.0 0.00 0.01 0.00 67 1025.5
20260906141007 65 199 6.0 13.0 0.00 0.01 0.00 66 1025.5
20260906140523 64 193 5.0 11.0 0.00 0.01 0.00 67 1025.5
20260906140015 63 176 5.0 9.0 0.00 0.01 0.00 69 1025.5
20260906135523 63 186 5.0 9.0 0.00 0.01 0.00 70 1026.0
20260906135028 63 177 6.0 10.0 0.00 0.01 0.00 69 1026.0
20260906134512 63 183 5.0 8.0 0.00 0.01 0.00 70 1025.5
20260906133510 63 192 6.0 10.0 0.00 0.01 0.00 64 1025.5
20260906133014 64 208 6.0 12.0 0.00 0.01 0.00 62 1025.5
20260906132508 63 211 5.0 10.0 0.00 0.01 0.00 62 1025.5
20260906132025 62 219 5.0 10.0 0.00 0.01 0.00 64 1025.5
20260906131522 62 204 6.0 11.0 0.00 0.01 0.00 66 1025.5
20260906131014 62 230 5.0 10.0 0.00 0.01 0.00 65 1025.5
20260906130507 62 232 5.0 16.0 0.00 0.01 0.00 64 1025.5
20260906130048 61 215 5.0 13.0 0.00 0.01 0.00 64 1025.5
20260906125548 61 231 4.0 9.0 0.00 0.01 0.00 64 1025.5
20260906124547 61 245 3.0 6.0 0.00 0.01 0.00 65 1025.5
20260906123509 60 243 3.0 8.0 0.00 0.01 0.00 69 1025.5
20260906123012 60 258 3.0 8.0 0.00 0.01 0.00 73 1025.5
20260906122508 60 262 2.0 4.0 0.00 0.01 0.00 75 1025.5
20260906122036 60 264 3.0 5.0 0.00 0.01 0.00 74 1025.1
20260906121508 61 271 3.0 4.0 0.00 0.01 0.00 75 1025.1
20260906121015 61 271 3.0 6.0 0.00 0.01 0.00 74 1025.1
20260906120012 62 261 3.0 4.0 0.00 0.01 0.00 72 1025.5
20260906115506 62 256 3.0 4.0 0.00 0.01 0.00 71 1025.5
20260906115011 62 232 3.0 8.0 0.00 0.01 0.00 71 1025.5
20260906114515 62 229 3.0 7.0 0.00 0.01 0.00 72 1025.5
20260906114009 62 259 3.0 6.0 0.00 0.01 0.00 71 1025.5
20260906113514 62 226 4.0 7.0 0.00 0.01 0.00 71 1025.5
20260906113009 62 252 3.0 7.0 0.00 0.01 0.00 71 1025.5
20260906112514 62 239 4.0 9.0 0.00 0.01 0.00 71 1025.5
20260906112045 62 264 3.0 7.0 0.00 0.01 0.00 70 1025.5
20260906111537 62 250 4.0 10.0 0.00 0.01 0.00 70 1025.5
20260906111056 61 214 5.0 9.0 0.00 0.01 0.00 71 1025.5
20260906110033 60 217 4.0 7.0 0.00 0.01 0.00 73 1025.5
20260906105543 60 213 3.0 8.0 0.00 0.01 0.00 74 1025.5
20260906104540 60 188 4.0 6.0 0.00 0.01 0.00 75 1025.5
20260906104034 60 220 4.0 10.0 0.00 0.01 0.00 75 1025.5
20260906103554 61 237 3.0 8.0 0.00 0.01 0.00 75 1025.5
20260906103009 61 248 3.0 6.0 0.00 0.01 0.00 75 1025.5
20260906102539 61 230 3.0 7.0 0.00 0.01 0.00 76 1025.1
20260906102009 61 252 4.0 13.0 0.00 0.01 0.00 76 1025.1
20260906101513 60 258 4.0 8.0 0.00 0.01 0.00 77 1025.1
20260906101009 60 228 4.0 11.0 0.00 0.01 0.00 77 1025.5
20260906100541 61 200 5.0 9.0 0.00 0.01 0.00 77 1025.5
20260906095514 60 242 4.0 11.0 0.00 0.01 0.00 78 1025.1
20260906095034 60 241 4.0 8.0 0.00 0.01 0.00 78 1025.1
20260906094526 60 240 4.0 8.0 0.00 0.01 0.00 78 1025.1
20260906094008 60 252 4.0 10.0 0.00 0.01 0.00 78 1025.1
20260906093536 60 234 4.0 9.0 0.00 0.01 0.00 79 1025.1
20260906093044 60 235 4.0 9.0 0.00 0.01 0.00 79 1025.1
20260906092513 60 222 5.0 11.0 0.00 0.01 0.00 80 1025.1
20260906092031 60 200 6.0 16.0 0.00 0.01 0.00 80 1025.1
20260906091550 60 231 6.0 15.0 0.00 0.01 0.00 80 1025.1
20260906091009 60 208 7.0 18.0 0.00 0.01 0.00 80 1025.1
20260906090512 60 230 6.0 14.0 0.00 0.01 0.00 80 1025.1
20260906090007 60 243 5.0 11.0 0.00 0.01 0.00 80 1025.1
20260906085511 60 230 4.0 10.0 0.00 0.01 0.00 79 1025.1
20260906085015 60 232 5.0 11.0 0.00 0.01 0.00 79 1025.1
20260906084510 60 224 5.0 11.0 0.00 0.01 0.00 80 1025.1
20260906083510 60 225 7.0 18.0 0.00 0.01 0.00 79 1025.5
20260906083039 60 236 5.0 11.0 0.00 0.01 0.00 77 1025.5
20260906082514 61 352 6.0 15.0 0.00 0.01 0.00 76 1025.1
20260906081510 61 208 6.0 14.0 0.00 0.01 0.00 76 1025.5
20260906081016 61 234 5.0 20.0 0.00 0.01 0.00 75 1025.5
20260906080525 62 308 4.0 18.0 0.00 0.01 0.00 75 1025.5
20260906075028 63 258 3.0 7.0 0.00 0.01 0.00 70 1025.5
20260906074514 63 267 3.0 6.0 0.00 0.01 0.00 68 1025.5
20260906074059 63 227 4.0 10.0 0.00 0.01 0.00 68 1025.5
20260906072501 63 214 3.0 9.0 0.00 0.01 0.00 68 1025.5
20260906061535 64 171 5.0 12.0 0.00 0.01 0.00 69 1025.5
20260906061039 64 164 5.0 11.0 0.00 0.01 0.00 71 1025.5
20260906060508 64 163 5.0 8.0 0.00 0.01 0.00 73 1026.0
20260906060017 64 168 6.0 13.0 0.00 0.01 0.00 76 1026.0
20260906055557 64 151 5.0 10.0 0.00 0.01 0.01 77 1025.5
20260906055013 63 176 8.0 17.0 0.00 0.01 0.01 80 1026.0
20260906054508 63 162 7.0 13.0 0.00 0.01 0.01 81 1026.0
20260906054013 63 157 6.0 10.0 0.00 0.01 0.01 80 1026.0
20260906053508 63 162 6.0 11.0 0.00 0.01 0.01 80 1026.0
20260906053024 63 158 5.0 8.0 0.00 0.01 0.01 79 1026.0
20260906052520 63 146 4.0 10.0 0.00 0.01 0.01 78 1026.0
20260906052023 64 160 5.0 9.0 0.00 0.01 0.01 77 1026.4
20260906051543 64 156 5.0 9.0 0.00 0.01 0.01 77 1026.0
20260906051049 64 178 5.0 7.0 0.00 0.01 0.01 76 1026.4
20260906050543 64 149 7.0 13.0 0.00 0.01 0.01 76 1026.4
20260906050006 64 149 5.0 10.0 0.00 0.01 0.01 75 1026.4
20260906043512 65 152 4.0 7.0 0.00 0.01 0.01 72 1026.0
20260906042522 66 164 4.0 7.0 0.00 0.01 0.01 69 1026.0
20260906042016 66 154 4.0 9.0 0.00 0.01 0.01 67 1026.0
20260906041014 65 159 4.0 7.0 0.00 0.01 0.01 68 1026.0
20260906040509 65 151 3.0 6.0 0.00 0.01 0.01 69 1026.0
20260906040023 65 165 4.0 7.0 0.00 0.01 0.01 68 1026.4
20260906035510 65 157 4.0 7.0 0.00 0.01 0.01 67 1026.4
20260906034508 65 155 4.0 7.0 0.00 0.01 0.01 65 1026.4
20260906034012 65 154 3.0 6.0 0.00 0.01 0.01 65 1026.4
20260906033506 65 147 4.0 7.0 0.00 0.01 0.01 64 1026.4
20260906033010 66 141 3.0 5.0 0.00 0.01 0.01 63 1026.4
20260906032530 66 136 2.0 4.0 0.00 0.01 0.01 62 1026.9
20260906032010 66 147 3.0 5.0 0.00 0.01 0.01 61 1026.9
20260906031514 66 123 2.0 7.0 0.00 0.01 0.01 59 1026.9
20260906031015 66 159 2.0 5.0 0.00 0.01 0.01 57 1026.9
20260906030047 66 144 2.0 4.0 0.00 0.01 0.01 56 1026.9
20260906025511 66 140 3.0 5.0 0.00 0.01 0.01 56 1026.4
20260906022508 67 159 3.0 6.0 0.00 0.01 0.01 52 1026.0
20260906022050 67 120 2.0 3.0 0.00 0.01 0.01 52 1026.0
20260906021520 66 115 2.0 3.0 0.00 0.01 0.01 52 1026.0
20260906021012 66 130 2.0 3.0 0.00 0.01 0.01 52 1026.0
20260906020506 66 98 2.0 3.0 0.00 0.01 0.01 52 1026.0
20260906015025 67 100 1.0 2.0 0.00 0.01 0.01 51 1026.0
20260906013020 67 75 2.0 3.0 0.00 0.01 0.01 50 1026.0
20260906011053 68 85 1.0 2.0 0.00 0.01 0.01 49 1026.0
20260906010548 68 27 1.0 2.0 0.00 0.01 0.01 49 1026.0
20260906010031 68 57 1.0 3.0 0.00 0.01 0.01 48 1026.0
20260906005511 69 88 2.0 8.0 0.00 0.01 0.01 48 1026.0
20260906005041 70 101 3.0 8.0 0.00 0.01 0.01 47 1026.0
20260906004512 70 78 2.0 6.0 0.00 0.01 0.01 46 1026.0
20260906004040 71 102 4.0 8.0 0.00 0.01 0.01 44 1026.0
20260906003511 71 100 2.0 7.0 0.00 0.01 0.01 43 1026.0
20260906003021 71 90 2.0 4.0 0.00 0.01 0.01 44 1026.0
20260906001539 72 112 2.0 3.0 0.00 0.01 0.01 43 1026.0
20260906000056 72 75 2.0 8.0 0.00 0.01 0.01 43 1026.0
20260905235537 72 14 1.0 3.0 0.00 0.01 0.01 42 1026.0
20260905235033 73 28 1.0 3.0 0.00 0.01 0.01 42 1025.5
20260905234523 74 79 2.0 4.0 0.00 0.01 0.01 41 1025.5
20260905234019 75 40 1.0 4.0 0.00 0.01 0.01 40 1025.5
20260905233511 75 110 3.0 7.0 0.00 0.01 0.01 40 1025.5
20260905233016 76 138 3.0 6.0 0.00 0.01 0.01 39 1025.5
20260905232535 76 138 3.0 5.0 0.00 0.01 0.01 38 1025.5
20260905232008 76 127 3.0 7.0 0.00 0.01 0.01 38 1025.5
20260905231016 77 38 2.0 3.0 0.00 0.01 0.01 34 1025.5
20260905230535 76 260 2.0 6.0 0.00 0.01 0.01 35 1025.5
20260905230040 76 271 2.0 6.0 0.00 0.01 0.01 35 1025.5
20260905225547 76 193 3.0 8.0 0.00 0.01 0.01 36 1025.5
20260905225016 76 325 2.0 4.0 0.00 0.01 0.01 36 1025.5
20260905224510 76 45 2.0 4.0 0.00 0.01 0.01 36 1025.5
20260905224040 77 158 2.0 6.0 0.00 0.01 0.01 36 1025.5
20260905223509 77 195 2.0 5.0 0.00 0.01 0.01 35 1025.5
20260905223013 77 230 3.0 7.0 0.00 0.01 0.01 35 1025.5
20260905222508 77 102 2.0 7.0 0.00 0.01 0.01 34 1025.5
20260905222054 77 162 4.0 10.0 0.00 0.01 0.01 34 1025.5
20260905221015 78 320 1.0 4.0 0.00 0.01 0.01 34 1025.5
20260905220520 79 196 3.0 6.0 0.00 0.01 0.01 33 1025.5
20260905220026 78 169 3.0 7.0 0.00 0.01 0.01 34 1025.5
20260905215520 79 188 4.0 8.0 0.00 0.01 0.01 33 1025.5
20260905215013 79 144 2.0 4.0 0.00 0.01 0.01 34 1025.5
20260905214506 79 139 3.0 6.0 0.00 0.01 0.01 35 1025.5
20260905214048 77 299 1.0 4.0 0.00 0.01 0.01 36 1025.5
20260905213556 77 50 2.0 5.0 0.00 0.01 0.01 36 1025.5
20260905213037 76 190 3.0 6.0 0.00 0.01 0.01 36 1025.5
20260905212519 77 197 4.0 6.0 0.00 0.01 0.01 36 1025.5
20260905212011 78 184 3.0 7.0 0.00 0.01 0.01 36 1025.5
20260905211517 78 153 4.0 8.0 0.00 0.01 0.01 37 1025.5
20260905211023 78 247 2.0 5.0 0.00 0.01 0.01 37 1026.0